152P/Helin-Lawrence

Epoch 2003 Jan. 1.0 TT = JDT 2452640.5

T 2002 Dec. 22.44846 TT                                 Kobayashi

q   3.1101055            (2000.0)            P               Q

n   0.10350167     Peri.  163.69002     -0.24273978     +0.95484156

a   4.4926697      Node    92.01613     -0.90809601     -0.16153024

e   0.3077378      Incl.    9.87150     -0.34123166     -0.24937036

P   9.52

From 245 observations 1993-2004, mean residual 0".91.

Residuals in seconds of arc

1993/                     941123 360  0.4+  1.1+    020603 118 (2.4+  0.4+)   

930421 675 (0.8-  3.9-)   941204 360  0.6+  1.7+    020603 118  1.8+  0.4+    

930422 675 (2.2-  2.9-)   941204 360  0.1-  1.4+    020603 118  1.6+  0.5+    

930517 675  1.4+  2.0-    941222 360  0.8+  1.5+    020605 360  0.6+  0.2+    

930517 675  1.1+  1.9-    941222 360  1.2+  1.6+    020605 360  0.4+  0.1-    

930517 675  0.1+  0.1-    941222 360  0.3+  1.5+    020609 704  1.9+  1.0+    

930519 675 (2.8-  0.9+)   941222 413  0.6+  0.8+    020609 704  0.4+  0.6+    

930519 675  0.4+  2.0-    941222 413  0.3+  0.7+    020609 704  0.8+  0.1+    

930527 675 (2.2-  1.7-)   1995/                     020714 704  2.1+  1.7+    

930527 675  2.0-  1.6-    950816 608  0.7-  0.6+    020714 704 (2.8+  1.9+)   

930527 894 (2.3-  1.4-)   950817 608  0.5-  1.3+    020714 704 (4.2+  2.0+)   

930527 894 (2.9-  1.6-)   950825 950  1.2+  0.5-    020714 704 (3.2+  0.8+)   

930527 010  1.1+  0.7-    950825 950  0.9+  0.6-    020714 704 (4.4+  0.9+)   

930527 010  1.0+  0.8-    950830 608  0.2+  0.8+    2003/                     

930528 010  0.4+  0.2-    950831 608  0.5-  0.4+    030625 704  0.8+  1.2+    

930529 010 (2.5+  0.5+)   950922 608  0.1-  0.3+    030625 704  1.8+  0.4-    

930529 010  1.4+  0.0     950922 608  0.0   0.3+    030625 704 (1.3+  2.5-)   

930529 010  1.5+  0.5-    951017 608  0.3+  1.8+    030625 704  0.5+  0.5-    

930604 361  0.7+  0.9-    951017 360  0.0   1.5+    030625 704  0.5-  1.3-    

930604 361  0.4-  0.2-    951017 360  0.6-  1.2+    030627 704  0.0   1.5+    

930604 413  1.5-  1.2-    951017 360  0.6+  0.8+    030627 704  0.6-  0.1-    

930608 670 (2.4-  1.0+)   951018 608  0.8+  1.3+    030627 704  0.9-  0.5-    

930608 670  2.0-  0.1-    951018 608 (0.1-  2.3+)   030627 704  0.7-  1.9-    

930608 670  1.8-  0.5+    1996/                     030702 704  1.4+  0.3-    

930611 361  1.5-  0.4-    960119 691  0.9+  0.6+    030702 704  1.0+  2.1-    

930611 361 (2.3-  0.1-)   960119 691  0.6+  0.3+    030702 704  1.1+  1.9-    

930611 360  1.5-  0.5-    960119 691  0.9+  0.4+    030702 704  1.1+  2.0-    

930611 361  0.5-  1.8-    960120 691  0.2-  0.5+    030702 704  0.5+  2.0-    

930611 361  1.5-  0.4+    960120 691  0.4-  0.7+    030703 428  0.8-  0.1+    

930611 360  1.3-  0.2-    960120 691  0.2-  1.3+    030703 428  0.3-  0.1-    

930611 361  1.3-  1.1-    1997/                     030711 204  0.5-  0.2-    

930617 675 (0.2-  3.2-)   971229 568  1.3+  0.3+    030711 204  0.2-  0.7-    

930618 801  1.3-  0.3+    971230 568  1.1+  0.9+    030711 204  1.0-  0.7-    

930618 801  1.0-  0.2-    2001/                     030711 204  0.4-  0.0     

930619 675 (0.2+  2.5-)   010123 695  0.2-  1.6+    030711 204  0.2-  0.3-    

930620 675 (2.3-  1.7-)   010123 695  0.5-  1.2+    030711 204  0.3-  0.1+    

930621 675  0.1-  1.3-    010123 695  0.3+  0.2+    030719 859 (4.9-  1.8+)   

930621 675 (0.0   2.4-)   011224 867  0.8-  0.9+    030719 859 (2.7-  1.4+)   

930626 675  2.0+  0.1-    011224 867  0.8+  0.5-    030719 859 (3.0-  1.3+)   

930626 675  0.5+  1.1-    011224 867  0.2-  0.4+    030729 859  1.0-  1.2+    

930627 587  0.4-  1.2+    011224 867  0.0   0.7+    030729 859  0.8+  0.4+    

930627 587  0.4+  0.5+    2002/                     030729 859  1.8-  1.1+    

930627 587  0.7-  1.2+    020111 461  1.0-  0.6+    030928 704  0.7+  1.0-    

930701 413  0.0   0.3-    020111 461 (0.1-  2.2+)   030928 704  1.7+  0.9-    

930701 413  0.1-  0.2-    020111 461  1.0+  1.1+    030928 704 (2.6+  0.4+)   

930715 675  0.3-  1.0+    020224 360  0.5-  1.3+    030928 704 (2.7+  0.2+)   

930720 675  1.3+  1.5+    020224 360  0.7-  0.4+    030928 704 (3.0+  0.1-)   

930720 675  1.1-  0.5+    020224 360  0.5-  0.8+    030929 704  0.5+  0.5+    

930722 372  0.9+  0.6-    020311 360  0.8-  0.5+    030929 704  1.2+  0.8-    

930722 372  1.9-  1.1-    020311 360  1.0-  0.7+    030929 704  1.9+  0.4-    

930731 413  1.2-  0.2-    020311 360  0.7-  0.5+    030929 704  1.5+  0.1+    

930731 413  1.3-  0.1-    020313 691  0.5+  0.5+    030929 704 (2.7+  0.1-)   

930810 474  0.2-  0.9+    020313 691  0.9+  1.4+    031027 704  0.4-  0.7-    

930810 474  0.6-  1.5+    020320 704  0.4+  0.1+    031027 704  0.1+  0.2+    

930815 474  1.3-  0.8-    020320 704  0.4-  0.9+    031027 704  1.2+  0.2-    

930815 474  1.0-  1.5-    020320 704  0.7+  1.8+    031027 704  1.0+  0.4+    

930820 675  1.4+  0.1+    020320 704 (1.0-  2.4+)   2004/                     

930821 675 (0.5+  2.3+)   020410 704  0.7+  0.3+    040624 E12  0.8-  0.8-    

930822 675  0.2+  1.3-    020410 704  1.3+  1.4+    040624 E12 (2.2-  0.7-)   

930905 360  0.3-  1.9+    020410 704  0.2+  1.5+    040624 E12  1.3-  0.0     

930905 360  0.8-  1.8+    020410 704  0.3-  0.2+    040624 E12 (2.9-  1.2-)   

930913 675  0.7+  0.7+    020410 704  0.1-  1.0+    040826 E12  1.0-  0.2+    

930913 675  1.2-  0.2+    020411 704  1.5+  0.7+    040826 E12  0.6-  1.2-    

930923 413  0.4+  0.4-    020411 704  0.8+  1.1+    040826 E12  1.8-  0.5-    

930923 413  0.4+  0.3-    020411 704  0.6+  1.1+    040826 E12  0.6-  0.1+    

931010 360  1.3+  0.7+    020411 704  0.3+  0.9+    040906 644  1.0-  0.2+    

931010 360  0.3+  0.3+    020411 704  1.1-  1.9+    040906 644  1.3-  0.2+    

931010 360 (1.0+  2.4+)   020416 704  0.5+  1.1+    040906 644  1.0-  0.4+    

1994/                     020416 704  1.0+  1.1+    040907 704  1.2-  0.0     

940502 413  0.4-  0.6-    020416 704  0.2+  1.1+    040907 704  1.6-  0.3+    

940502 413  0.6-  0.6-    020416 704  0.4+  1.6+    040907 704  0.4-  0.4-    

940502 413  0.6-  0.8-    020416 704  0.5+  1.6+    040907 704  0.8-  0.0     

940503 413  0.9-  0.6-    020507 704  0.1+  1.0+    040907 704  1.2-  0.6-    

940503 413  1.4-  0.2-    020507 704  0.2+  0.0     040915 699 (2.4-  0.4-)   

940504 413  0.5-  0.7-    020507 704  0.1+  1.2+    040915 699 (3.4-  0.3+)   

940504 413  0.6-  0.5-    020507 704  0.3-  1.5+    040915 699 (2.2-  1.0+)   

940803 360  0.0   0.6+    020507 644  0.4+  1.2+    040915 699  2.1-  1.6+    

940803 360  0.3-  0.8+    020507 704  0.6-  1.1+    040918 204  0.7-  0.1+    

940815 360  0.5-  0.5+    020507 644  0.4+  0.9+    040919 204  0.1+  1.1+    

940815 360  0.6-  0.7+    020507 644  0.5+  1.3+    040921 704  1.6-  0.2-    

940906 691  0.4-  0.0     020512 644  0.7+  0.6+    040921 704  0.8-  0.6+    

940906 691  0.3-  0.1+    020512 644  0.7+  0.6+    040921 704  1.0-  0.4+    

940906 691  0.3-  0.5+    020512 644  0.5+  0.7+    040921 704  0.0   0.3+    

940908 360  0.0   1.0+    020512 367  0.0   0.3-    040921 704  0.3-  0.0     

940908 360  0.3-  0.7+    020512 367  0.4+  0.1+    041005 704  0.5+  0.1-    

940917 413  0.5+  1.0+    020512 367  0.4+  0.0     041005 704  0.3-  1.2+    

940917 413  0.1+  1.6+    020513 704 (2.5+  0.6+)   041005 704  0.7-  1.1+    

940918 413  0.3-  1.9+    020513 704 (2.8+  0.7+)   041006 704  0.1+  1.3+    

940918 413  0.1+  2.0+    020513 704 (2.6+  1.1+)   041006 704  0.2-  0.1-    

940925 360  0.2+  0.6+    020513 704 (2.6+  0.3+)   041006 704  0.6-  0.4-    

940925 360  0.3+  0.9+    020513 704  1.7+  1.3+    041006 360  0.2-  0.1+    

941024 360  0.1-  0.9+    020518 608  1.2+  1.1-    041006 360  0.2-  0.1+    

941024 360  0.4+  1.2+    020518 608  0.8+  0.1-    041107 644  0.3+  0.6+    

941025 360  0.7+  0.2+    020518 608  1.2+  0.2+    041107 644  0.1-  1.2+    

941025 360  0.3+  0.6+    020519 360  0.4+  0.1+    041107 644  0.0   0.7+    

941106 360  0.4+  1.2+    020519 360  0.9+  0.5+    041201 360  0.5-  0.3-    

941106 360  0.6+  1.3+    020601 170  0.8+  0.6-    041201 360  0.1-  0.3+    

941123 360  0.4+  1.2+    020601 170  0.2-  0.1-    041201 360  0.0   0.1-    



NAKANO

         **** Don't distribute anyone except personal use only ****

                (C) Copyright 2005 OAA/ComputingSection

write mail from CFAD0::NAKANO on 2005-11-03 23:22:12(JST).





 152P/Helin-Lawrence                                             

Epoch 2003 Jan. 1.0 TT = JDT 2452640.5  

T 2002 Dec. 22.44842 TT                                 Nakano

q   3.1101028            (2000.0)            P               Q

n   0.10350169     Peri.  163.69005     -0.24273865     +0.95484184

a   4.4926691      Node    92.01617     -0.90809624     -0.16152919

e   0.3077383      Incl.    9.87150     -0.34123185     -0.24936996

P   9.52

From 181 observations 1993-2002, mean residual 0".94.



NAKANO

         **** Don't distribute anyone except personal use only ****

                (C) Copyright 2003 OAA/ComputingSection

write mail from CFAD0::NAKANO on 2003-01-07 05:12:31(JST).

 

 152P/Helin-Lawrence 

Epoch 2003 Jan. 1.0 TT = JDT 2452640.5  

T 2002 Dec. 22.45084 TT                                 Nakano

q   3.1101058            (2000.0)            P               Q

n   0.10350164     Peri.  163.69060     -0.24273591     +0.95484308

a   4.4926704      Node    92.01580     -0.90809601     -0.16152729

e   0.3077378      Incl.    9.87133     -0.34123440     -0.24936646

P   9.52

From 128 observations 1993-2002, mean residual 0".91.



NAKANO

         **** Don't distribute anyone except personal use only ****

                (C) Copyright 2002 OAA/ComputingSection

write mail from CFAD0::NAKANO on 2002-01-29 00:05:43(JST).



–ß‚è‚Ü‚·B